When you browse on this site, cookies collect data to enhance your experience and personalize the content and advertising you see.
Visit our Privacy Policy to learn more. By continuing to use the site, you agree to this use of cookies and data.
  • In Germany
  • List of Countries
  • For 7 days
  • Water Temperature
  • Satellite Maps
  • Weather Map
  • Weather Widgets
  • user-avatar
    Login

    Hourly Weather Salta

    Today, 25 April, Thursday

    Time Temperature Precipitation Wind Pressure Humidity
    00:00 +14°C° 0 mm 0 mps 652 mmHg 93%
    01:00 +14°C° 0 mm 0 mps 652 mmHg 92%
    02:00 +15°C° 0 mm 1 mps 652 mmHg 93%
    03:00 +15°C° 0 mm 1 mps 651 mmHg 91%
    04:00 +15°C° 0 mm 1 mps 651 mmHg 89%
    05:00 +15°C° 0 mm 1 mps 651 mmHg 87%
    06:00 +15°C° 0.1 mm 1 mps 652 mmHg 84%
    07:00 +16°C° 0.1 mm 1 mps 652 mmHg 81%
    08:00 +18°C° 0.1 mm 1 mps 653 mmHg 78%
    09:00 +18°C° 0.1 mm 2 mps 653 mmHg 76%
    10:00 +19°C° 0.1 mm 2 mps 653 mmHg 74%
    11:00 +21°C° 0.1 mm 3 mps 653 mmHg 72%
    12:00 +21°C° 0.1 mm 3 mps 653 mmHg 73%
    13:00 +21°C° 0.1 mm 3 mps 652 mmHg 73%
    14:00 +21°C° 0.1 mm 3 mps 651 mmHg 74%
    15:00 +20°C° 0.1 mm 3 mps 651 mmHg 78%
    16:00 +19°C° 0.1 mm 2 mps 651 mmHg 83%
    17:00 +19°C° 0.1 mm 2 mps 650 mmHg 87%
    18:00 +19°C° 0.1 mm 1 mps 651 mmHg 90%
    19:00 +18°C° 0.1 mm 1 mps 651 mmHg 92%
    20:00 +16°C° 0.1 mm 1 mps 652 mmHg 94%
    21:00 +16°C° 0.1 mm 1 mps 652 mmHg 93%
    22:00 +15°C° 0.1 mm 1 mps 652 mmHg 92%
    23:00 +15°C° 0.1 mm 1 mps 652 mmHg 91%

    Tomorrow, 26 April, Friday

    Time Temperature Precipitation Wind Pressure Humidity
    00:00 +15°C° 0 mm 1 mps 652 mmHg 88%
    01:00 +15°C° 0 mm 1 mps 652 mmHg 85%
    02:00 +15°C° 0 mm 1 mps 652 mmHg 81%
    03:00 +15°C° 0 mm 1 mps 652 mmHg 81%
    04:00 +15°C° 0 mm 1 mps 652 mmHg 81%
    05:00 +15°C° 0 mm 1 mps 652 mmHg 81%
    06:00 +16°C° 0 mm 1 mps 652 mmHg 80%
    07:00 +16°C° 0 mm 1 mps 653 mmHg 78%
    08:00 +18°C° 0 mm 1 mps 653 mmHg 77%
    09:00 +19°C° 0.1 mm 1 mps 653 mmHg 76%
    10:00 +19°C° 0.1 mm 2 mps 653 mmHg 75%
    11:00 +20°C° 0.1 mm 2 mps 653 mmHg 74%
    12:00 +20°C° 0 mm 2 mps 653 mmHg 73%
    13:00 +20°C° 0 mm 2 mps 652 mmHg 72%
    14:00 +21°C° 0 mm 3 mps 651 mmHg 71%
    15:00 +20°C° 0.1 mm 2 mps 651 mmHg 76%
    16:00 +19°C° 0.1 mm 2 mps 650 mmHg 82%
    17:00 +19°C° 0.1 mm 1 mps 650 mmHg 87%
    18:00 +18°C° 0.1 mm 1 mps 651 mmHg 89%
    19:00 +16°C° 0.1 mm 1 mps 651 mmHg 91%
    20:00 +16°C° 0.1 mm 1 mps 652 mmHg 92%
    21:00 +15°C° 0 mm 1 mps 652 mmHg 91%
    22:00 +15°C° 0 mm 1 mps 652 mmHg 90%
    23:00 +15°C° 0 mm 1 mps 652 mmHg 89%

    Day after tomorrow, 27 April, Saturday

    Time Temperature Precipitation Wind Pressure Humidity
    00:00 +14°C° 0 mm 1 mps 652 mmHg 88%
    01:00 +14°C° 0 mm 1 mps 652 mmHg 86%
    02:00 +14°C° 0 mm 1 mps 651 mmHg 85%
    03:00 +13°C° 0 mm 1 mps 651 mmHg 83%
    04:00 +13°C° 0 mm 1 mps 651 mmHg 81%
    05:00 +13°C° 0 mm 1 mps 651 mmHg 80%
    06:00 +14°C° 0 mm 1 mps 652 mmHg 75%
    07:00 +15°C° 0 mm 1 mps 653 mmHg 71%
    08:00 +16°C° 0 mm 1 mps 654 mmHg 67%
    09:00 +19°C° 0 mm 1 mps 654 mmHg 61%
    10:00 +22°C° 0 mm 1 mps 655 mmHg 54%
    11:00 +24°C° 0 mm 2 mps 655 mmHg 48%
    12:00 +25°C° 0.1 mm 2 mps 655 mmHg 46%
    13:00 +25°C° 0.1 mm 2 mps 654 mmHg 44%
    14:00 +26°C° 0.1 mm 2 mps 653 mmHg 42%
    15:00 +25°C° 0 mm 2 mps 653 mmHg 46%
    16:00 +24°C° 0 mm 2 mps 652 mmHg 50%
    17:00 +23°C° 0 mm 2 mps 652 mmHg 54%
    18:00 +21°C° 0 mm 1 mps 651 mmHg 64%
    19:00 +19°C° 0 mm 1 mps 651 mmHg 74%
    20:00 +14°C° 0 mm 0 mps 651 mmHg 84%
    21:00 +14°C° 0 mm 0 mps 651 mmHg 85%
    22:00 +14°C° 0 mm 0 mps 652 mmHg 85%
    23:00 +13°C° 0 mm 0 mps 652 mmHg 86%

    28 April, Sunday

    Time Temperature Precipitation Wind Pressure Humidity
    00:00 +13°C° 0 mm 0 mps 651 mmHg 84%
    01:00 +13°C° 0 mm 0 mps 651 mmHg 82%
    02:00 +13°C° 0 mm 0 mps 651 mmHg 80%
    03:00 +13°C° 0 mm 0 mps 651 mmHg 77%
    04:00 +13°C° 0 mm 0 mps 651 mmHg 75%
    05:00 +13°C° 0 mm 0 mps 651 mmHg 72%
    06:00 +14°C° 0 mm 0 mps 651 mmHg 69%
    07:00 +16°C° 0 mm 0 mps 652 mmHg 65%
    08:00 +17°C° 0 mm 0 mps 653 mmHg 62%
    09:00 +21°C° 0 mm 1 mps 654 mmHg 56%
    10:00 +23°C° 0 mm 1 mps 654 mmHg 50%
    11:00 +25°C° 0 mm 2 mps 655 mmHg 44%
    12:00 +26°C° 0 mm 2 mps 654 mmHg 42%
    13:00 +27°C° 0 mm 2 mps 653 mmHg 40%
    14:00 +27°C° 0 mm 3 mps 652 mmHg 39%
    15:00 +26°C° 0 mm 2 mps 652 mmHg 43%
    16:00 +25°C° 0 mm 2 mps 651 mmHg 47%
    17:00 +24°C° 0 mm 2 mps 651 mmHg 51%
    18:00 +22°C° 0 mm 1 mps 650 mmHg 61%
    19:00 +20°C° 0 mm 1 mps 650 mmHg 70%
    20:00 +15°C° 0 mm 0 mps 650 mmHg 80%
    21:00 +15°C° 0 mm 0 mps 650 mmHg 82%
    22:00 +15°C° 0 mm 1 mps 650 mmHg 84%
    23:00 +15°C° 0 mm 1 mps 650 mmHg 87%

    29 April, Monday

    Time Temperature Precipitation Wind Pressure Humidity
    00:00 +15°C° 0 mm 1 mps 650 mmHg 86%
    01:00 +15°C° 0 mm 1 mps 650 mmHg 86%
    02:00 +15°C° 0 mm 1 mps 649 mmHg 86%
    03:00 +15°C° 0 mm 1 mps 649 mmHg 84%
    04:00 +15°C° 0 mm 1 mps 649 mmHg 82%
    05:00 +15°C° 0 mm 1 mps 649 mmHg 81%
    06:00 +16°C° 0 mm 1 mps 650 mmHg 77%
    07:00 +18°C° 0 mm 1 mps 650 mmHg 73%
    08:00 +19°C° 0 mm 1 mps 651 mmHg 69%
    09:00 +21°C° 0 mm 1 mps 651 mmHg 66%
    10:00 +21°C° 0 mm 2 mps 651 mmHg 63%
    11:00 +23°C° 0 mm 2 mps 651 mmHg 59%
    12:00 +24°C° 0 mm 2 mps 651 mmHg 58%
    13:00 +25°C° 0 mm 2 mps 650 mmHg 56%
    14:00 +26°C° 0 mm 2 mps 649 mmHg 55%
    15:00 +25°C° 0 mm 2 mps 649 mmHg 59%
    16:00 +24°C° 0 mm 2 mps 649 mmHg 64%
    17:00 +24°C° 0 mm 2 mps 649 mmHg 69%
    18:00 +22°C° 0.1 mm 1 mps 649 mmHg 76%
    19:00 +21°C° 0.1 mm 1 mps 649 mmHg 83%
    20:00 +19°C° 0.1 mm 1 mps 650 mmHg 91%
    21:00 +17°C° 0.1 mm 0 mps 650 mmHg 92%
    22:00 +17°C° 0.1 mm 0 mps 650 mmHg 93%
    23:00 +16°C° 0.1 mm 0 mps 651 mmHg 95%

    30 April, Tuesday

    Time Temperature Precipitation Wind Pressure Humidity
    00:00 +16°C° 0 mm 0 mps 651 mmHg 94%
    01:00 +16°C° 0 mm 0 mps 651 mmHg 94%
    02:00 +16°C° 0 mm 1 mps 651 mmHg 94%
    03:00 +16°C° 0 mm 1 mps 651 mmHg 93%
    04:00 +16°C° 0 mm 1 mps 651 mmHg 92%
    05:00 +16°C° 0 mm 1 mps 651 mmHg 92%
    06:00 +18°C° 0.1 mm 1 mps 652 mmHg 89%
    07:00 +18°C° 0.1 mm 1 mps 653 mmHg 86%
    08:00 +19°C° 0.1 mm 1 mps 654 mmHg 84%
    09:00 +20°C° 0.3 mm 1 mps 654 mmHg 83%
    10:00 +19°C° 0.3 mm 2 mps 654 mmHg 82%
    11:00 +20°C° 0.3 mm 2 mps 654 mmHg 82%
    12:00 +19°C° 0.6 mm 2 mps 654 mmHg 86%
    13:00 +18°C° 0.6 mm 2 mps 653 mmHg 90%
    14:00 +17°C° 0.6 mm 2 mps 652 mmHg 94%
    15:00 +16°C° 0.3 mm 2 mps 652 mmHg 95%
    16:00 +16°C° 0.3 mm 2 mps 652 mmHg 96%
    17:00 +15°C° 0.3 mm 2 mps 652 mmHg 97%
    18:00 +15°C° 0.2 mm 2 mps 653 mmHg 97%
    19:00 +14°C° 0.2 mm 1 mps 654 mmHg 97%
    20:00 +14°C° 0.2 mm 1 mps 654 mmHg 97%
    21:00 +14°C° 0.1 mm 1 mps 655 mmHg 95%
    22:00 +14°C° 0.1 mm 1 mps 655 mmHg 93%
    23:00 +13°C° 0.1 mm 0 mps 655 mmHg 92%
    Show more